Notices

What's New in latest Release from April 7th, 2021:

- Updated Glossary, including Speed of Maximum Gust, and Total Hourly Precipitation

- Updated national and regional climate services offices contacts and prices information

- Addition of station inventory lists for 1981-2010, 1971-2000, and 1961-1990 Normals.

Please note that as of June 10, 2021 UTC dates are available for all years 2004-present, and DBA is working on populating the remaining years (2003 to 1953).

If you haven't already, please take our survey and provide feedback about our website: https://eccc.sondage-survey.ca/f/LanguageSelection.aspx?s=442ca660-fcf1-47c0-95a9-59707d6fd709

Hourly Data Report for December 19, 2020

FORT GOOD HOPE CS
NORTHWEST TERRITORIES
Current Station Operator: ECCC - MSC

66°14'32.044" N
128°38'39.081" W
81.70 m
2201450
71491
ZGH

Download Data

Hourly Data (December 2020)
Hourly Data Report for December 19, 2020
TIME
LST
Temp Definition
°C
Dew Point Definition
°C
Rel Hum Definition
%
Precip. Amount Definition
mm

Wind Dir Definition
10's deg

Wind Spd Definition
km/h
Visibility Definition
km
Stn Press Definition
kPa
Hmdx Definition


Wind Chill Definition


Weather Definition


00:00 -47.2 -51.5 61 0.0 12 3   99.90   -52 LegendNANA
01:00 -47.6 -52.0 61 0.0 11 3   99.92   -52 LegendNANA
02:00 -47.1 -51.4 61 0.0 10 4   99.92   -53 LegendNANA
03:00 -47.2 -51.5 61 0.0 8 3   99.94   -52 LegendNANA
04:00 -47.3 -51.6 61 0.0 9 3   99.96   -52 LegendNANA
05:00 -47.3 -51.7 61 0.0 11 2   100.01   -50 LegendNANA
06:00 -47.6 -52.0 61 0.0 11 1   99.99   -49 LegendNANA
07:00 -47.6 -52.0 61 0.0 5 3   99.98   -52 LegendNANA
08:00 -47.5 -51.9 61 0.0 12 3   99.93   -52 LegendNANA
09:00 -47.6 -52.0 61 0.0   0   99.96     LegendNANA
10:00 -47.5 -51.9 61 0.0 0 1   99.96   -49 LegendNANA
11:00 -47.2 -51.6 61 0.0 8 3   99.92   -52 LegendNANA
12:00 -46.7 -51.1 61 0.0 10 3   99.95   -51 LegendNANA
13:00 -46.4 -50.7 61 0.0 5 3   99.91   -51 LegendNANA
14:00 -46.1 -50.5 61 0.0   0   99.88     LegendNANA
15:00 -45.9 -50.3 62 0.0 0 1   99.87   -47 LegendNANA
16:00 -45.9 -50.3 62 0.0 8 1   99.82   -47 LegendNANA
17:00 -45.5 -49.8 62 0.0 3 2   99.79   -49 LegendNANA
18:00 -46.1 -50.4 62 0.0 9 2   99.78   -49 LegendNANA
19:00 -46.2 -50.6 61 0.0 13 4   99.72   -52 LegendNANA
20:00 -45.6 -50.0 62 0.0 5 2   99.67   -49 LegendNANA
21:00 -45.4 -49.8 62 0.0 4 1   99.62   -47 LegendNANA
22:00 -45.7 -50.0 62 0.0 3 1   99.58   -47 LegendNANA
23:00 -46.0 -50.3 62 0.0   0   99.53     LegendNANA

Notes on Data Quality.

Legend

  • E = Estimated
  • M = Missing
  • NA = Not Available*
  • [empty] = Indicates an unobserved value
Date modified: